Theta_e
286 286 286 285 285 286 284 284 284 284 284 283 283 283 283 282 282 282 282 282 282 282 281 281 282 282 282 282 282 281 281 280 280 281 281 280 280 280 279 279 279 279
285 285 286 285 285 285 284 285 284 284 283 283 283 282 282 282 282 282 282 282 282 281 281 281 281 281 281 281 281 280 280 280 279 280 280 279 279 279 278 278 278 278
285 285 285 284 284 284 284 284 284 284 283 283 282 282 282 282 281 282 282 281 281 280 280 281 281 280 280 280 281 280 280 279 279 279 279 278 278 278 278 278 278 278
284 284 284 284 284 284 283 283 283 283 282 282 282 282 282 282 281 281 281 281 280 280 280 280 280 280 280 279 280 279 279 279 278 278 278 277 277 277 277 277 277 277
284 284 284 284 284 284 283 283 282 282 282 282 282 282 281 281 281 280 280 280 280 279 279 279 279 279 278 278 278 278 278 277 277 278 277 277 277 277 277 277 276 276
284 284 284 284 284 283 283 283 283 282 282 281 282 282 281 281 280 280 280 279 279 279 279 278 278 278 278 278 278 278 277 277 277 277 277 276 276 276 276 276 276 275
283 283 283 283 283 283 283 283 282 282 282 282 281 281 280 280 280 280 279 279 279 279 278 278 277 277 277 277 277 276 276 276 276 276 276 276 276 275 275 276 276 275
283 283 283 283 283 282 282 282 282 282 281 281 281 281 280 280 280 279 279 279 279 278 278 277 277 277 277 277 276 276 275 275 275 275 275 275 275 275 275 275 275 275
283 282 282 282 282 282 282 282 282 281 281 281 280 280 280 280 279 279 279 279 278 278 277 277 277 276 276 276 276 276 275 275 275 275 275 274 274 274 274 274 274 274
282 282 282 282 282 282 282 281 281 281 281 281 280 279 279 279 279 279 278 278 278 277 277 277 276 276 275 276 276 275 275 275 275 274 275 275 274 274 274 274 274 273
282 281 281 281 282 282 281 281 281 280 280 280 280 279 279 279 279 278 278 278 277 277 276 276 276 275 275 275 275 276 275 275 274 274 274 274 274 274 274 274 273 273
281 281 281 281 282 281 281 281 280 280 280 280 280 279 279 279 278 278 278 277 277 277 277 276 276 275 275 275 275 275 275 275 274 274 273 274 274 274 274 274 273 273
281 281 281 281 281 281 281 281 280 280 280 280 280 279 279 278 278 277 278 277 277 277 276 276 275 275 275 275 274 274 274 274 274 274 274 273 273 274 273 273 273 273
281 281 281 281 281 281 281 281 280 280 280 280 280 279 279 278 277 277 277 277 276 276 276 276 275 275 274 274 274 274 274 274 274 274 273 273 273 273 273 273 273 273
282 281 281 281 281 281 281 281 280 280 280 280 280 279 279 278 278 278 277 276 276 276 276 276 275 274 274 274 274 274 274 274 274 274 273 273 273 273 273 273 273 273
282 281 281 281 281 281 281 281 280 280 280 280 280 279 279 278 278 278 277 276 275 275 275 274 274 274 275 277 277 275 275 274 274 274 273 273 273 272 272 272 272 272
282 281 281 281 281 281 281 281 280 280 280 280 280 279 278 278 278 277 277 276 275 275 274 274 274 274 277 280 280 279 275 275 274 274 274 273 273 272 272 272 272 272
282 282 281 281 281 281 281 280 280 280 280 280 279 278 278 278 277 277 276 276 275 275 274 274 274 276 279 281 281 281 278 275 274 273 273 273 273 272 272 272 271 271
283 282 281 281 281 281 281 280 280 280 279 279 278 279 278 277 277 277 276 276 275 275 274 275 274 278 280 282 282 282 281 276 274 274 273 273 273 272 272 272 271 271
282 282 282 281 281 281 280 280 280 279 279 279 278 278 277 277 277 277 277 276 275 275 274 274 274 277 281 282 283 283 282 278 274 273 273 273 272 272 271 272 271 271
282 282 282 281 281 280 280 280 279 279 279 279 278 278 277 277 277 277 276 275 275 275 275 274 274 278 281 282 283 283 283 281 273 273 273 273 273 272 272 271 271 271
283 282 282 281 280 279 279 279 279 279 279 278 278 277 277 277 276 276 275 274 274 274 274 273 274 279 281 282 283 284 284 281 274 274 273 273 272 272 272 272 271 271
283 282 281 281 280 279 279 279 279 279 279 278 277 277 276 276 275 275 275 274 273 273 273 273 273 277 281 282 283 284 283 280 275 275 274 273 273 273 272 271 271 271
283 282 282 281 280 279 279 280 280 279 279 277 277 276 276 275 275 274 274 274 273 272 273 273 273 275 280 281 282 284 283 279 276 276 275 274 273 272 272 272 271 271
283 282 282 281 280 280 280 280 279 279 278 276 277 277 276 275 274 274 273 273 273 273 273 273 273 274 279 281 282 283 283 279 276 275 274 274 273 272 272 270 270 271
283 282 282 281 281 280 280 280 279 277 276 275 275 276 275 275 274 274 273 272 271 271 272 273 272 272 275 280 281 282 284 280 275 275 273 273 273 272 270 270 270 270
Wind_Speed
6 5 7 8 7 6 9 10 7 7 6 6 6 6 6 5 5 5 6 6 6 7 6 7 7 7 6 7 7 7 7 7 6 5 6 6 6 7 7 7 5 5
7 6 5 5 6 5 5 6 8 8 8 7 6 6 5 6 5 5 6 7 6 6 6 6 6 7 7 6 7 8 7 6 7 3 6 7 6 6 6 6 6 5
7 8 8 10 8 10 9 8 8 8 7 7 7 5 6 5 7 5 5 6 6 6 5 5 6 6 6 7 7 7 7 7 7 5 6 6 5 5 5 5 4 4
8 7 8 9 8 10 9 9 8 8 7 7 7 6 6 6 6 7 6 6 6 6 6 5 6 5 6 6 7 6 7 6 6 6 6 5 4 5 5 4 4 4
11 10 8 8 8 7 7 9 10 9 8 7 7 7 7 8 7 7 7 6 6 7 6 6 5 5 5 5 6 7 6 6 6 6 6 6 4 4 4 4 4 5
6 6 9 10 9 9 8 9 10 10 10 9 8 7 7 7 7 8 8 8 6 7 7 6 6 5 5 6 5 6 6 7 6 6 6 6 5 3 3 4 5 5
10 10 10 8 10 9 9 10 8 8 8 7 7 7 8 8 8 8 8 8 8 7 7 7 6 6 5 5 5 6 5 6 7 6 7 5 5 5 3 4 4 5
10 9 10 10 11 10 10 9 8 8 9 9 8 7 8 8 9 8 7 8 8 8 7 7 6 6 6 5 6 7 6 5 6 7 7 6 5 5 4 3 4 5
10 11 10 11 12 10 10 9 8 8 7 9 8 8 6 6 8 8 8 8 8 7 7 7 6 6 6 6 6 7 8 7 6 7 7 7 6 6 6 5 5 4
10 9 11 11 10 8 11 9 8 8 8 8 7 7 7 6 6 8 8 8 8 7 7 7 7 6 6 6 7 7 8 8 7 6 6 6 6 7 6 5 5 5
10 10 10 11 10 9 10 10 9 8 7 8 8 8 7 8 7 6 7 7 7 8 8 8 8 8 7 6 6 5 6 7 7 6 6 6 6 6 6 6 5 5
10 9 10 11 10 9 10 9 9 8 8 7 8 9 8 7 7 6 7 8 7 7 7 7 7 6 6 7 7 6 6 6 6 6 6 6 6 6 6 5 5 5
10 10 9 9 9 8 8 8 8 8 8 8 8 8 9 9 7 7 6 7 7 7 7 8 7 7 7 6 7 6 7 7 7 6 6 5 5 6 6 6 6 6
10 10 10 9 8 8 8 8 8 8 8 7 8 9 8 9 9 8 7 6 6 7 6 6 7 7 7 6 6 7 7 6 6 7 7 6 6 6 6 6 6 6
10 10 9 9 10 9 9 9 9 8 7 7 8 8 8 9 7 7 8 8 7 7 7 7 7 7 6 7 7 7 6 7 6 7 7 7 6 6 6 6 6 6
10 10 10 9 10 10 10 10 9 10 10 10 10 9 9 9 7 7 7 8 8 7 7 6 6 5 9 14 11 7 7 5 5 5 6 6 7 7 6 6 6 6
12 12 10 11 12 11 11 11 11 10 10 10 10 9 10 9 7 8 8 7 8 8 8 6 6 6 14 16 16 14 8 7 6 6 5 6 6 7 7 8 7 7
12 12 12 12 11 12 11 10 10 10 10 10 9 9 9 9 10 9 8 7 6 7 7 7 7 11 16 17 16 16 12 7 6 5 5 5 5 6 5 6 8 7
12 12 13 11 12 11 11 10 11 11 10 11 13 11 9 10 11 10 11 9 8 9 9 8 7 13 17 17 16 16 16 11 4 6 6 6 6 6 6 6 6 7
12 11 12 12 11 10 10 11 12 13 11 8 7 7 10 10 9 12 10 10 10 9 8 7 7 12 17 17 17 17 16 12 6 6 6 6 6 6 5 6 6 7
11 11 11 10 10 10 10 10 10 8 9 10 10 11 12 12 12 11 10 8 10 10 9 10 8 13 16 18 17 17 16 12 6 5 5 6 6 6 6 6 6 5
12 11 10 10 11 10 11 11 12 12 12 9 8 7 6 5 5 6 8 10 9 9 9 10 8 15 17 17 18 17 17 9 6 7 7 6 6 6 6 6 6 6
13 13 12 12 12 12 12 12 11 10 9 7 9 9 9 9 10 10 9 9 9 9 10 9 8 13 17 17 17 18 14 7 8 7 6 9 7 6 6 6 6 7
12 13 13 12 11 13 14 13 11 9 10 9 11 11 11 11 8 7 6 7 9 10 10 9 8 10 16 17 18 18 14 8 8 8 8 8 8 6 6 6 8 12
12 12 12 13 14 13 12 12 12 12 10 8 9 8 8 6 6 7 6 6 7 8 8 9 8 9 15 16 18 18 15 7 8 8 8 9 9 8 7 6 6 9
10 12 11 12 13 11 10 11 8 7 8 9 8 7 7 7 7 7 8 7 6 7 8 9 8 6 8 16 16 17 19 8 6 8 9 10 10 9 8 6 7 7
Wind_Direction
162 170 161 152 154 153 145 144 147 145 140 144 145 144 142 134 130 112 109 111 110 113 119 117 116 113 110 109 107 101 96 98 92 97 98 100 102 110 114 123 120 121
164 157 137 120 119 118 114 131 138 147 144 142 138 132 127 128 118 118 122 118 108 107 113 111 108 114 117 113 113 106 107 106 103 98 108 105 112 110 116 126 124 125
149 152 148 156 152 147 143 137 138 137 140 135 129 134 132 129 122 119 119 116 115 114 107 106 108 108 111 111 112 110 117 121 118 122 114 117 121 119 122 125 120 128
158 167 159 155 151 149 147 142 138 131 131 141 152 144 138 130 125 126 121 117 122 114 108 105 107 108 111 117 118 114 119 113 119 124 116 112 115 120 125 121 122 118
164 159 157 148 148 146 147 152 151 151 153 145 134 144 138 136 136 133 129 128 127 119 115 114 113 120 126 127 128 124 125 122 128 131 122 118 122 122 130 132 128 119
155 162 153 153 154 155 159 162 158 154 148 150 152 143 139 138 142 139 140 137 134 126 125 126 132 139 143 136 137 128 134 129 136 132 120 121 124 123 132 137 128 122
165 161 159 153 148 161 160 157 157 150 149 140 136 150 148 148 148 146 147 141 136 135 135 141 144 148 149 144 137 131 128 125 134 135 126 125 128 128 131 131 127 123
168 163 158 155 155 158 162 159 158 156 146 145 154 149 155 153 148 147 144 141 137 140 141 143 147 148 150 152 145 138 135 140 142 143 136 133 135 137 139 140 137 133
163 166 161 162 159 163 164 161 155 151 151 152 154 150 150 153 148 145 145 142 139 142 143 147 152 151 157 158 159 155 151 155 157 153 146 146 151 153 154 149 143 144
170 164 163 162 166 171 167 159 155 154 152 149 145 147 147 146 147 147 145 148 142 146 151 151 154 160 160 171 173 167 158 156 156 154 148 151 151 156 159 159 153 148
172 166 167 170 173 170 166 158 157 153 153 152 150 153 153 146 149 150 147 150 153 156 157 163 166 163 166 173 178 178 169 154 154 151 154 154 156 158 160 156 158 161
175 170 176 176 175 170 166 162 157 157 156 157 160 154 153 157 151 155 159 155 157 159 160 162 163 162 172 170 166 168 171 162 149 146 150 151 154 159 159 164 161 160
176 178 176 176 175 168 157 159 160 161 162 161 167 159 158 160 158 150 160 155 155 155 162 166 164 168 171 169 166 172 172 160 152 149 149 148 153 156 160 163 164 163
179 176 175 174 167 159 164 160 159 163 168 162 162 165 167 165 163 159 153 155 154 155 157 159 168 169 171 167 171 178 173 161 155 154 151 150 153 159 163 167 170 170
176 174 173 164 161 163 166 169 170 166 160 162 170 169 171 169 161 153 149 151 154 163 165 172 174 180 173 171 170 180 169 159 163 162 158 154 157 160 168 172 176 177
172 173 172 167 166 170 173 173 172 171 173 174 178 174 167 167 162 157 157 159 161 167 167 168 184 179 188 188 188 168 163 159 160 167 162 159 158 166 176 183 183 182
173 177 173 176 176 172 175 175 173 172 176 178 175 171 170 170 164 161 169 167 168 164 168 178 186 187 190 194 192 181 164 162 167 168 169 169 178 176 178 181 186 186
177 172 175 179 174 178 175 174 171 173 179 177 172 171 176 170 177 178 166 165 157 168 178 184 190 196 197 197 193 185 177 167 161 164 171 183 188 192 185 181 183 185
174 173 177 177 182 177 172 168 173 178 179 176 183 181 166 176 185 176 185 179 171 174 188 188 193 200 199 198 194 189 183 172 165 167 179 186 195 197 197 192 183 187
175 175 180 183 178 171 168 173 179 186 182 176 164 163 179 184 186 189 184 184 184 182 182 192 197 200 199 199 197 193 187 175 156 173 182 194 194 196 199 203 201 198
175 177 178 172 169 170 175 180 180 173 173 181 182 182 183 189 189 188 190 183 186 187 189 198 204 197 200 200 197 194 193 174 160 172 183 192 196 196 200 199 207 214
173 176 172 169 172 171 173 180 183 185 185 178 176 184 188 175 188 185 185 190 190 186 188 204 203 199 202 201 200 198 194 181 159 184 198 198 193 194 189 196 202 208
176 173 175 175 175 175 182 183 182 184 184 168 178 186 186 191 194 194 193 188 185 188 195 205 201 203 203 202 201 199 196 180 168 187 199 206 206 190 190 192 198 201
175 177 176 172 170 181 186 189 185 184 185 177 184 183 191 197 191 189 190 189 190 196 197 201 206 203 204 204 203 202 199 180 180 190 201 207 209 198 189 201 203 203
177 174 173 176 183 188 184 182 185 187 181 175 188 184 193 174 177 187 192 194 198 199 194 204 209 204 207 208 206 207 205 181 179 187 193 207 208 212 206 197 203 209
172 175 178 179 184 183 183 188 176 158 164 175 185 184 180 179 182 189 192 201 190 193 202 206 206 205 206 212 212 212 212 188 158 183 201 207 210 209 207 210 206 214